CAPE
0 0 0 0 0 0 0 0 0 16 84 1576 1274 974 1059 913 1379 1593 1521 1804 2393 2775 3299 3082 1638 1666 1712 1662 1942 2346 3661 2785 3474 3396 3260 3121 3012 2901 2862 3049 2420 1929 1805 1956
0 1 0 0 0 0 0 0 0 0 7 1040 824 734 908 845 1141 1356 1749 906 1283 1722 2078 2328 2595 2457 2094 2075 1994 1981 2210 2361 3098 3715 3595 3876 3531 3273 3511 3049 2956 3168 2096 1471
0 0 2 0 0 0 0 0 0 0 330 460 788 944 909 802 947 1182 1037 959 1066 769 1110 1509 1853 2064 2415 2559 2488 2501 2384 2339 2689 3485 3237 3769 3606 3903 3851 3892 3886 3168 2523 1898
7 13 0 8 18 58 35 2 6 33 66 669 794 786 757 593 593 845 1079 979 714 749 757 801 1245 1259 1208 1799 2532 2648 2688 2564 2486 2548 2726 3319 4135 4358 4606 4395 4319 3749 2993 2733
0 1 0 9 106 95 51 26 341 119 261 423 823 856 1016 727 494 847 741 625 522 641 815 772 805 647 933 1745 2714 2341 2695 2796 2802 2748 3022 3158 3708 4237 4477 4430 4587 4066 3292 3466
0 0 0 414 199 137 141 66 662 776 714 610 939 931 1440 734 413 568 670 538 733 870 704 648 568 634 1052 1840 2980 2402 2180 2550 2887 3070 3547 3242 4047 4452 4626 4168 4432 3517 3682 4115
0 0 1 343 122 139 28 185 241 237 305 520 963 1311 788 736 338 331 602 665 738 1038 898 764 676 1025 1232 1100 1707 1809 2220 3019 2967 3549 3527 3700 4377 4549 4547 4539 4269 4376 4055 4191
0 3 37 218 99 165 298 383 202 141 295 238 387 954 945 516 406 344 561 620 614 963 955 672 694 899 1087 898 823 1088 1940 2184 2539 3251 3036 3190 3831 4455 4555 4629 4441 4247 4453 3450
207 354 388 284 375 236 222 242 230 156 253 273 299 604 674 429 488 412 303 402 557 567 724 518 558 562 480 781 1468 1689 2137 2280 2659 2792 3138 3347 3262 2901 3987 4193 4080 3665 2506 3263
0 7 58 68 223 175 195 308 207 205 386 360 354 329 521 537 341 301 255 255 630 744 603 749 579 641 557 389 414 1095 1044 1290 1416 1804 2094 2553 2353 1923 1936 2039 2046 2245 2389 1808
111 97 54 164 118 138 139 287 313 209 332 503 316 311 345 180 158 179 263 265 244 394 496 549 696 1061 704 437 349 840 916 873 883 864 772 1123 982 997 786 694 696 1055 1027 1054
72 35 114 310 297 176 96 308 441 374 349 490 249 233 293 220 141 127 175 186 150 241 268 228 366 466 698 587 328 642 877 768 308 729 768 734 628 343 162 27 131 396 382 334
39 1 13 31 31 3 119 333 466 666 455 430 216 165 175 201 103 66 57 83 157 120 141 54 34 79 106 406 676 720 901 405 663 703 157 250 225 181 122 78 2 17 15 97
0 0 0 5 37 50 196 336 410 658 228 230 99 55 51 168 56 49 48 27 28 94 22 0 3 0 0 40 210 649 379 468 757 557 824 1090 273 240 427 700 243 112 0 71
0 0 0 13 27 96 144 303 478 457 153 79 26 13 3 7 21 3 9 12 4 39 41 18 0 1 0 43 151 253 497 922 840 734 895 717 966 1031 910 565 170 64 0 0
1 0 0 0 4 10 18 298 344 460 311 100 44 58 2 0 0 2 0 0 1 3 3 20 0 0 2 12 136 317 361 378 493 534 672 707 686 551 446 357 236 12 11 0
0 1 8 10 12 18 15 167 244 443 432 248 251 11 2 2 13 11 8 4 1 14 11 0 0 0 0 5 128 185 258 358 370 326 384 578 861 532 543 465 355 387 195 138
0 3 11 24 9 15 35 27 98 226 412 274 116 2 5 42 5 13 0 3 6 19 24 30 8 0 0 5 113 163 211 244 299 337 258 246 178 346 522 523 450 354 349 223
5 20 25 5 24 49 27 68 115 159 319 33 31 1 1 20 28 4 0 10 2 3 0 3 9 1 0 3 68 140 163 269 281 251 298 250 190 165 168 255 395 387 358 322
0 20 26 28 40 53 65 64 74 93 72 7 2 5 6 20 36 21 2 0 0 0 0 0 0 0 4 4 23 96 146 185 257 335 235 208 256 244 174 173 125 105 85 55
0 25 23 39 42 40 40 47 47 38 0 0 0 0 15 30 56 16 19 0 0 0 0 0 0 0 0 0 0 21 153 175 218 261 497 409 284 209 209 207 188 101 0 2
0 12 23 41 3 42 0 28 0 0 1 11 15 8 20 46 24 9 0 0 0 0 0 0 0 0 0 0 0 0 8 76 144 181 376 350 320 461 306 152 110 179 154 35
0 24 0 0 0 0 0 0 0 0 4 3 3 3 2 10 31 17 1 0 0 0 0 0 0 0 0 0 0 0 1 18 116 148 225 130 115 295 321 125 46 102 80 53
21 25 0 0 0 0 0 1 1 2 11 0 3 4 0 1 1 0 0 0 0 0 0 0 0 0 0 0 0 0 0 0 6 223 138 97 127 149 152 67 120 22 0 228
53 25 25 23 0 0 0 0 0 0 0 0 0 0 18 12 26 6 1 0 0 0 0 0 0 0 0 0 0 0 0 0 0 0 24 142 103 45 38 4 41 98 65 86
104 82 64 43 55 25 18 43 20 0 0 0 0 0 0 0 0 0 0 0 0 0 0 0 0 0 0 0 0 0 0 0 0 0 0 0 3 33 45 25 75 87 12 12
61 58 116 114 139 67 53 62 41 48 23 26 2 15 31 15 8 12 5 17 14 13 0 0 0 0 0 0 0 0 0 0 0 0 0 0 0 0 0 4 0 0 2 3
CIN
-0 -0 -0 -0 -0 -0 -0 -0 -0 -0 -1 -3 -34 -127 -133 -171 -101 -77 -116 -132 -68 -53 -49 -26 -8 -0 -2 -4 -1 -0 -0 -26 -27 -34 -29 -29 -31 -30 -22 -19 -42 -54 -34 -28
-0 -0 -0 -0 -0 -0 -0 -0 -0 -0 -8 -1 -34 -89 -117 -130 -113 -92 -64 -210 -157 -152 -76 -33 -15 -9 -14 -32 -39 -25 -19 -41 -27 -12 -18 -7 -8 -6 -1 -2 -10 -5 -37 -55
-0 -0 -0 -0 -0 -0 -0 -0 -0 -0 -2 -12 -0 -43 -112 -147 -104 -102 -134 -151 -136 -214 -193 -113 -36 -34 -31 -20 -16 -20 -39 -36 -35 -18 -22 -5 -7 -0 -0 -0 -0 -2 -17 -33
-0 -0 -0 -0 -0 -0 -0 -0 -0 -0 -4 -0 -10 -53 -100 -185 -153 -90 -73 -74 -119 -134 -146 -210 -126 -165 -181 -123 -45 -24 -27 -43 -55 -52 -28 -13 -0 -0 -0 -0 -0 -0 -2 -5
-0 -0 -0 -1 -2 -1 -0 -0 -1 -0 -2 -0 -24 -54 -35 -136 -183 -62 -56 -54 -128 -98 -74 -214 -213 -292 -260 -131 -38 -55 -25 -23 -29 -36 -19 -14 -4 -0 -0 -0 -0 -0 -0 -0
-0 -0 -0 -1 -35 -16 -18 -0 -62 -42 -7 -0 -10 -8 -0 -84 -126 -68 -45 -92 -188 -174 -217 -255 -301 -305 -209 -93 -12 -40 -43 -20 -12 -6 -4 -12 -0 -0 -0 -0 -0 -0 -0 -0
-0 -0 -0 -20 -44 -43 -1 -25 -81 -85 -71 -35 -0 -0 -2 -48 -171 -125 -150 -148 -144 -117 -137 -125 -150 -163 -145 -179 -106 -95 -55 -8 -2 -1 -6 -7 -0 -0 -0 -0 -0 -0 -0 -0
-0 -0 -0 -85 -41 -6 -62 -42 -82 -126 -56 -68 -38 -0 -0 -34 -75 -150 -97 -88 -80 -101 -125 -153 -188 -169 -133 -192 -211 -154 -82 -45 -13 -3 -17 -6 -0 -1 -0 -0 -0 -0 -0 -0
-9 -1 -55 -82 -54 -91 -95 -75 -70 -130 -49 -38 -38 -2 -0 -26 -27 -82 -145 -64 -136 -162 -149 -217 -117 -231 -269 -194 -91 -76 -37 -20 -2 -3 -0 -0 -8 -7 -3 -1 -0 -0 -0 -0
-15 -65 -35 -32 -36 -84 -63 -29 -80 -64 -32 -9 -0 -10 -0 -0 -19 -52 -122 -174 -89 -98 -140 -130 -187 -177 -207 -269 -238 -90 -103 -65 -53 -13 -4 -0 -2 -50 -38 -35 -36 -24 -26 -15
-51 -48 -23 -5 -2 -7 -29 -9 -26 -65 -13 -0 -4 -0 -0 -28 -52 -84 -91 -107 -116 -101 -113 -125 -106 -57 -133 -182 -218 -88 -84 -101 -90 -76 -85 -44 -98 -72 -108 -99 -89 -78 -72 -56
-1 -36 -11 -2 -5 -7 -11 -1 -0 -23 -3 -0 -2 -0 -0 -16 -73 -101 -76 -74 -113 -89 -103 -117 -107 -95 -58 -84 -162 -104 -56 -68 -200 -82 -57 -64 -95 -147 -70 -348 -218 -126 -103 -57
-11 -18 -54 -11 -38 -3 -0 -0 -0 -0 -0 -1 -1 -4 -5 -3 -4 -43 -89 -93 -56 -53 -72 -123 -187 -204 -177 -81 -43 -59 -24 -137 -54 -55 -212 -170 -159 -27 -21 -35 -16 -354 -269 -90
-0 -0 -0 -26 -65 -32 -0 -0 -1 -0 -5 -0 -0 -12 -14 -0 -3 -15 -46 -47 -55 -52 -84 -0 -0 -0 -0 -209 -141 -38 -109 -96 -38 -74 -23 -6 -98 -104 -64 -2 -109 -2 -0 -228
-0 -0 -0 -37 -55 -10 -26 -0 -1 -0 -7 -0 -3 -11 -40 -2 -0 -0 -26 -38 -18 -13 -25 -56 -0 -0 -0 -148 -136 -122 -55 -15 -27 -38 -21 -37 -5 -0 -1 -3 -61 -104 -0 -0
-0 -0 -0 -0 -0 -0 -22 -0 -0 -0 -0 -14 -16 -11 -0 -0 -0 -4 -0 -0 -0 -1 -8 -22 -0 -0 -0 -165 -124 -87 -93 -97 -66 -55 -40 -25 -3 -39 -71 -49 -25 -43 -7 -9
-0 -0 -0 -0 -0 -0 -0 -0 -0 -0 -0 -0 -1 -35 -0 -0 -1 -27 -1 -2 -2 -0 -0 -0 -0 -0 -0 -46 -132 -112 -107 -94 -83 -103 -85 -45 -8 -26 -41 -37 -50 -48 -52 -111
-0 -0 -0 -0 -3 -0 -1 -2 -8 -1 -0 -0 -1 -6 -14 -1 -12 -14 -2 -5 -1 -1 -3 -1 -13 -0 -0 -132 -124 -107 -107 -110 -117 -91 -117 -88 -83 -62 -23 -27 -61 -52 -35 -62
-0 -0 -0 -0 -0 -0 -1 -2 -26 -3 -0 -2 -6 -5 -19 -44 -5 -3 -0 -14 -13 -70 -2 -27 -28 -13 -0 -66 -149 -122 -156 -90 -78 -92 -78 -55 -54 -70 -83 -54 -21 -10 -3 -0
-0 -0 -0 -0 -0 -0 -0 -0 -3 -4 -1 -3 -0 -0 -9 -20 -23 -0 -0 -0 -0 -0 -0 -0 -0 -0 -169 -180 -281 -185 -149 -83 -43 -30 -42 -43 -29 -39 -42 -56 -83 -78 -62 -106
-0 -0 -0 -0 -0 -0 -0 -0 -0 -0 -0 -0 -0 -0 -0 -7 -0 -0 -0 -0 -0 -0 -0 -0 -0 -0 -0 -0 -0 -251 -103 -75 -50 -39 -0 -0 -6 -27 -24 -15 -18 -37 -0 -11
-0 -0 -0 -0 -0 -0 -0 -0 -0 -0 -7 -0 -0 -0 -0 -0 -0 -0 -0 -0 -0 -0 -0 -0 -0 -0 -0 -0 -0 -0 -226 -115 -73 -25 -0 -0 -0 -0 -1 -16 -19 -15 -21 -85
-0 -0 -0 -0 -0 -0 -0 -0 -0 -0 -0 -2 -0 -0 -0 -0 -0 -0 -0 -0 -0 -0 -0 -0 -0 -0 -0 -0 -0 -0 -0 -144 -61 -33 -0 -6 -23 -0 -0 -3 -19 -4 -2 -14
-0 -0 -0 -0 -0 -0 -0 -0 -0 -1 -1 -0 -1 -0 -4 -0 -0 -0 -0 -0 -0 -0 -0 -0 -0 -0 -0 -0 -0 -0 -0 -0 -94 -6 -14 -9 -0 -3 -5 -3 -1 -36 -0 -0
-0 -0 -0 -0 -0 -0 -0 -0 -0 -0 -0 -0 -0 -0 -0 -1 -0 -0 -0 -0 -0 -0 -0 -0 -0 -0 -0 -0 -0 -0 -0 -0 -0 -0 -57 -4 -2 -11 -17 -34 -16 -4 -26 -14
-0 -0 -0 -0 -0 -0 -0 -0 -0 -0 -0 -0 -0 -0 -0 -0 -0 -0 -0 -0 -0 -0 -0 -0 -0 -0 -0 -0 -0 -0 -0 -0 -0 -0 -0 -0 -32 -32 -21 -40 -6 -10 -6 -2
-0 -1 -0 -0 -0 -0 -0 -0 -0 -0 -1 -1 -0 -3 -0 -0 -0 -0 -0 -0 -0 -0 -0 -0 -0 -0 -0 -0 -0 -0 -0 -0 -0 -0 -0 -0 -0 -0 -0 -4 -0 -0 -0 -0
Wind_Speed
nan nan nan nan nan nan nan nan nan nan nan 50 31 47 44 38 44 45 44 44 42 44 45 34 18 15 17 12 11 13 19 19 16 11 12 13 13 13 15 15 15 14 16 17
nan nan nan nan nan nan nan nan nan nan nan 53 52 48 45 46 45 51 47 44 42 39 36 34 31 25 17 13 9 7 11 14 17 13 12 13 13 11 12 14 14 14 15 14
nan nan nan nan nan nan nan nan nan nan 39 59 57 52 47 44 42 45 51 45 45 41 36 41 34 26 23 18 13 10 7 7 10 12 11 11 12 14 13 14 12 14 15 15
nan nan nan nan nan nan nan nan nan nan nan 68 61 51 44 44 45 40 44 47 43 39 37 29 36 28 26 23 16 10 13 13 14 12 11 13 14 16 17 17 14 13 17 17
nan nan nan nan 33 nan nan nan 47 26 52 56 43 41 38 46 49 47 41 41 41 37 38 33 33 30 28 25 17 14 15 19 16 14 15 15 16 16 19 18 16 15 18 20
nan nan nan 43 50 48 39 nan 55 51 44 40 40 31 55 51 52 51 49 47 43 40 34 40 42 35 36 33 26 23 23 23 21 20 17 15 17 17 19 19 16 15 16 17
nan nan nan 45 50 45 nan 42 49 53 47 42 38 41 46 47 54 53 50 51 48 43 42 40 37 43 42 38 35 33 30 28 25 24 23 22 20 18 19 19 17 16 15 18
nan nan nan 43 nan 40 52 47 47 47 46 44 44 43 41 49 49 51 51 55 60 56 53 50 44 39 38 45 41 37 33 27 26 24 21 23 20 21 21 18 19 16 19 19
26 34 38 38 43 42 39 39 48 48 43 41 39 40 44 46 49 51 53 53 58 55 53 55 54 49 45 43 40 39 35 33 32 31 31 29 30 27 23 21 19 19 19 22
nan nan nan nan 41 37 42 44 46 50 47 41 39 42 40 46 46 48 49 52 53 55 57 57 54 54 51 46 42 37 36 37 35 34 32 31 28 32 33 28 28 31 28 28
21 nan nan 32 35 40 40 43 44 46 49 47 46 42 48 54 52 52 48 50 50 52 57 60 57 57 56 52 47 40 39 35 32 32 30 30 26 30 37 44 31 39 38 29
nan nan 28 41 43 39 nan 39 43 42 47 49 46 49 49 50 52 52 48 47 50 49 54 60 59 59 57 55 52 48 39 37 39 34 30 33 25 30 27 nan 21 31 31 28
nan nan nan nan nan nan 27 33 38 40 47 44 48 50 47 46 47 nan nan nan 50 54 50 nan nan nan 62 58 54 50 45 38 38 34 40 34 34 34 33 nan nan nan nan nan
nan nan nan nan nan nan 23 28 33 39 47 48 nan nan nan 44 nan nan nan nan nan nan nan nan nan nan nan nan 58 55 52 47 41 38 35 31 35 34 32 31 30 35 nan nan
nan nan nan nan nan nan 11 20 32 36 39 nan nan nan nan nan nan nan nan nan nan nan nan nan nan nan nan nan 53 48 47 44 42 40 39 37 30 31 33 28 33 nan nan nan
nan nan nan nan nan nan nan 6 22 31 36 38 nan nan nan nan nan nan nan nan nan nan nan nan nan nan nan nan 57 52 44 44 40 39 43 41 37 35 26 29 25 nan nan nan
nan nan nan nan nan nan nan 14 19 21 24 30 40 nan nan nan nan nan nan nan nan nan nan nan nan nan nan nan 48 43 44 42 42 39 37 35 35 26 28 20 17 13 17 16
nan nan nan nan nan nan nan nan nan 27 29 35 37 nan nan nan nan nan nan nan nan nan nan nan nan nan nan nan 38 36 31 35 32 36 26 33 31 30 27 23 18 18 19 21
nan nan nan nan nan nan nan nan 21 25 28 nan nan nan nan nan nan nan nan nan nan nan nan nan nan nan nan nan nan 26 26 28 29 30 30 25 25 32 33 31 31 23 23 18
nan nan nan nan nan nan nan nan nan nan nan nan nan nan nan nan nan nan nan nan nan nan nan nan nan nan nan nan nan nan 32 30 28 30 30 29 33 30 33 38 32 36 nan nan
nan nan nan nan nan nan nan nan nan nan nan nan nan nan nan nan nan nan nan nan nan nan nan nan nan nan nan nan nan nan 32 30 27 28 28 29 31 35 35 38 41 37 nan nan
nan nan nan nan nan nan nan nan nan nan nan nan nan nan nan nan nan nan nan nan nan nan nan nan nan nan nan nan nan nan nan nan 29 29 33 32 33 33 36 37 41 43 39 nan
nan nan nan nan nan nan nan nan nan nan nan nan nan nan nan nan nan nan nan nan nan nan nan nan nan nan nan nan nan nan nan nan 36 31 32 38 40 39 37 37 nan 37 nan nan
nan nan nan nan nan nan nan nan nan nan nan nan nan nan nan nan nan nan nan nan nan nan nan nan nan nan nan nan nan nan nan nan nan 38 35 nan 41 42 42 nan 39 nan nan 40
nan nan nan nan nan nan nan nan nan nan nan nan nan nan nan nan nan nan nan nan nan nan nan nan nan nan nan nan nan nan nan nan nan nan nan 42 41 nan nan nan nan nan nan nan
30 nan nan nan nan nan nan nan nan nan nan nan nan nan nan nan nan nan nan nan nan nan nan nan nan nan nan nan nan nan nan nan nan nan nan nan nan nan nan nan nan nan nan nan
nan nan 31 30 31 nan nan nan nan nan nan nan nan nan nan nan nan nan nan nan nan nan nan nan nan nan nan nan nan nan nan nan nan nan nan nan nan nan nan nan nan nan nan nan
Wind_Direction
nan nan nan nan nan nan nan nan nan nan nan 249 241 238 229 225 204 212 218 222 220 233 218 216 221 241 258 257 272 306 304 307 307 306 306 314 317 324 323 314 300 304 312 324
nan nan nan nan nan nan nan nan nan nan nan 238 239 236 228 223 214 208 218 220 223 227 218 219 214 212 237 241 226 246 303 299 292 292 281 291 304 311 317 317 304 298 303 313
nan nan nan nan nan nan nan nan nan nan 218 220 223 232 225 227 220 214 215 220 229 233 228 216 208 211 208 219 244 255 265 282 285 288 282 302 299 299 302 301 301 300 295 302
nan nan nan nan nan nan nan nan nan nan nan 229 222 226 224 225 226 216 215 213 217 226 235 222 199 219 213 212 219 262 295 304 314 298 273 287 301 296 291 285 295 291 289 289
nan nan nan nan 259 nan nan nan 202 233 237 230 223 223 224 231 228 221 214 214 214 208 228 230 221 214 222 226 227 266 288 294 296 317 297 296 300 299 290 290 290 292 288 292
nan nan nan 240 242 245 247 nan 234 235 241 232 227 220 230 223 226 222 212 211 216 211 214 232 222 217 217 224 229 268 275 284 290 281 295 298 301 296 291 287 285 287 290 293
nan nan nan 239 241 244 nan 250 246 239 238 231 228 223 230 224 223 227 217 209 212 218 220 224 229 231 234 241 242 242 249 255 280 286 284 274 274 287 288 293 281 288 281 277
nan nan nan 235 nan 241 248 255 248 244 236 228 225 229 229 228 225 226 224 216 214 222 226 228 231 228 233 241 241 241 246 258 266 271 272 288 279 266 276 286 290 284 284 276
230 235 256 255 252 250 239 240 242 240 232 223 220 227 225 225 218 218 225 221 216 215 224 227 228 231 231 232 234 236 239 254 260 254 261 270 260 254 258 278 278 277 280 278
nan nan nan nan 268 260 247 245 246 239 231 218 218 216 212 224 214 216 218 222 221 218 218 223 224 225 229 231 236 242 239 251 252 256 254 271 269 268 269 264 271 261 255 246
271 nan nan 272 264 259 245 245 240 240 231 219 218 220 214 225 219 216 219 223 225 222 220 220 225 228 226 229 232 238 244 249 254 256 262 258 260 256 267 266 261 269 264 254
nan nan 266 268 260 263 nan 237 237 236 225 215 218 222 223 221 222 221 218 221 221 219 218 220 223 226 230 229 229 237 240 247 247 256 264 266 271 284 281 nan 306 291 290 262
nan nan nan nan nan nan 245 235 232 236 223 212 219 222 222 223 226 nan nan nan 219 219 217 nan nan nan 227 230 232 234 241 241 241 239 260 262 270 279 288 nan nan nan nan nan
nan nan nan nan nan nan 236 239 235 237 225 221 nan nan nan 223 nan nan nan nan nan nan nan nan nan nan nan nan 231 236 239 245 242 245 251 253 265 262 267 271 296 294 nan nan
nan nan nan nan nan nan 234 229 241 241 236 nan nan nan nan nan nan nan nan nan nan nan nan nan nan nan nan nan 228 232 238 239 240 241 247 252 258 262 265 286 292 nan nan nan
nan nan nan nan nan nan nan 233 231 249 243 241 nan nan nan nan nan nan nan nan nan nan nan nan nan nan nan nan 228 232 233 236 243 248 251 251 257 262 270 283 277 nan nan nan
nan nan nan nan nan nan nan 244 233 235 254 250 247 nan nan nan nan nan nan nan nan nan nan nan nan nan nan nan 218 225 231 231 231 254 254 249 250 247 264 274 249 265 289 206
nan nan nan nan nan nan nan nan nan 239 247 244 242 nan nan nan nan nan nan nan nan nan nan nan nan nan nan nan 218 221 230 236 236 234 227 231 239 244 249 243 229 208 200 196
nan nan nan nan nan nan nan nan 238 243 246 nan nan nan nan nan nan nan nan nan nan nan nan nan nan nan nan nan nan 209 216 218 220 222 228 224 234 233 232 231 219 210 196 198
nan nan nan nan nan nan nan nan nan nan nan nan nan nan nan nan nan nan nan nan nan nan nan nan nan nan nan nan nan nan 209 212 214 221 225 232 239 234 233 231 241 230 nan nan
nan nan nan nan nan nan nan nan nan nan nan nan nan nan nan nan nan nan nan nan nan nan nan nan nan nan nan nan nan nan 216 211 212 220 217 223 228 236 233 236 239 238 nan nan
nan nan nan nan nan nan nan nan nan nan nan nan nan nan nan nan nan nan nan nan nan nan nan nan nan nan nan nan nan nan nan nan 215 219 217 216 221 226 229 232 234 233 232 nan
nan nan nan nan nan nan nan nan nan nan nan nan nan nan nan nan nan nan nan nan nan nan nan nan nan nan nan nan nan nan nan nan 219 219 224 221 215 216 221 227 nan 234 nan nan
nan nan nan nan nan nan nan nan nan nan nan nan nan nan nan nan nan nan nan nan nan nan nan nan nan nan nan nan nan nan nan nan nan 214 223 nan 224 221 222 nan 230 nan nan 235
nan nan nan nan nan nan nan nan nan nan nan nan nan nan nan nan nan nan nan nan nan nan nan nan nan nan nan nan nan nan nan nan nan nan nan 223 226 nan nan nan nan nan nan nan
267 nan nan nan nan nan nan nan nan nan nan nan nan nan nan nan nan nan nan nan nan nan nan nan nan nan nan nan nan nan nan nan nan nan nan nan nan nan nan nan nan nan nan nan
nan nan 265 263 260 nan nan nan nan nan nan nan nan nan nan nan nan nan nan nan nan nan nan nan nan nan nan nan nan nan nan nan nan nan nan nan nan nan nan nan nan nan nan nan